Home > Weather > Esbjerg > Past weeks

Flag for Denmark Weather for the Past 2 Weeks in Esbjerg, Denmark

Now
37 °F

Fog.


Feels Like: 35 °F
Forecast: 29 / 35 °F
Wind: 3 mph from North

Location: Esbjerg Airport

Current Time: Feb 11, 2016 at 8:31:02 AM

Latest Report: Feb 11, 2016 at 7:50 AM


Visibility: 0 mi

Pressure: 29.39 "Hg

Humidity: 93%

Dew point: 36 °F

Location of EsbjergLocation

Historic Weather in Esbjerg — Graph

°F

Esbjerg Temperature Yesterday

Maximum temperature yesterday: 43 °F (at 11:50 AM)
Minimum temperature yesterday: 36 °F (at 1:20 AM)
Average temperature yesterday: 40 °F

High & Low Weather Summary for the Past Weeks

 TemperatureHumidityPressure
High50 °F (Jan 27, 7:50 PM)100% (Jan 27, 7:20 AM)30.12 "Hg (Jan 27, 7:20 AM)
Low32 °F (Feb 4, 10:50 PM)70% (Jan 28, 8:50 AM)28.85 "Hg (Feb 8, 8:50 PM)
Average42 °F87%29.51 "Hg
* Reported Jan 27 7:20 AM — Feb 11 7:20 AM, Esbjerg, Weather by CustomWeather, © 2016

Note: Actual official high and low records may vary slightly from our data, if they occured in-between our weather recording intervals... More about our weather records

Advertising

Esbjerg Weather History for the Previous 24 Hours

 ConditionsComfort  
Time TempWeatherWind HumidityBarometerVisibility
7:20 AM
Thu, Feb 11
37 °FFog.1 mph100%29.39 "Hg6 mi
6:50 AM37 °FLow clouds.2 mph100%29.36 "Hg6 mi
6:20 AM37 °FLow clouds.2 mph100%29.36 "Hg6 mi
5:50 AM37 °FOvercast.3 mph100%29.36 "HgN/A
5:20 AM39 °FOvercast.3 mph93%29.36 "HgN/A
4:50 AM37 °FFog.2 mph100%29.33 "Hg3 mi
4:20 AM37 °FLow clouds.2 mph100%29.33 "Hg6 mi
3:50 AM39 °FLow clouds.2 mph93%29.33 "HgN/A
3:20 AM37 °FOvercast.2 mph100%29.33 "HgN/A
2:50 AM37 °FOvercast.5 mph100%29.30 "Hg4 mi
2:20 AM37 °FFog.3 mph93%29.30 "Hg2 mi
1:50 AM37 °FPassing clouds.3 mph93%29.30 "Hg5 mi
1:20 AM39 °FFog.2 mph93%29.30 "Hg3 mi
12:50 AM39 °FOvercast.2 mph100%29.27 "HgN/A
12:20 AM39 °FSprinkles. Passing clouds.1 mph100%29.27 "HgN/A
11:50 PM
Wed, Feb 10
39 °FRain showers. Overcast.2 mph93%29.27 "HgN/A
11:20 PM39 °FPassing clouds.1 mph93%29.27 "HgN/A
10:50 PM39 °FPassing clouds.1 mph93%29.24 "HgN/A
10:20 PM39 °FSprinkles. Overcast.1 mph100%29.24 "HgN/A
9:50 PM39 °FPassing clouds.1 mph93%29.24 "HgN/A
9:20 PM39 °FSprinkles. Passing clouds.2 mph93%29.21 "Hg5 mi
8:50 PM39 °FLight rain. Overcast.3 mph93%29.21 "HgN/A
8:20 PM39 °FOvercast.5 mph93%29.21 "HgN/A
7:50 PM39 °FOvercast.5 mph100%29.21 "HgN/A
7:20 PM39 °FPassing clouds.3 mph93%29.18 "HgN/A
6:50 PM39 °FPassing clouds.3 mph93%29.18 "HgN/A
6:20 PM41 °FPassing clouds.5 mph87%29.18 "HgN/A
5:50 PM41 °FPassing clouds.5 mph93%29.15 "HgN/A
5:20 PM41 °FOvercast.6 mph93%29.15 "HgN/A
4:50 PM43 °FPartly sunny.6 mph81%29.15 "HgN/A
4:20 PM43 °FOvercast.6 mph81%29.12 "HgN/A
3:50 PM43 °FPartly sunny.6 mph87%29.12 "HgN/A
3:20 PM43 °FPartly sunny.7 mph87%29.12 "HgN/A
2:50 PM43 °FBroken clouds.6 mph87%29.12 "HgN/A
2:20 PM43 °FPartly sunny.9 mph87%29.12 "HgN/A
1:50 PM43 °FPartly sunny.12 mph87%29.09 "HgN/A
1:20 PM43 °FPartly sunny.14 mph93%29.09 "HgN/A
12:50 PM43 °FPartly sunny.10 mph87%29.09 "HgN/A
12:20 PM43 °FPartly sunny.13 mph87%29.09 "HgN/A
11:50 AM43 °FPartly sunny.13 mph87%29.09 "HgN/A
11:20 AM41 °FPartly sunny.9 mph87%29.09 "HgN/A
10:50 AM41 °FPartly sunny.12 mph87%29.09 "HgN/A
10:20 AM41 °FPartly sunny.3 mph87%29.06 "HgN/A
9:50 AM39 °FLight rain. Partly sunny.8 mph87%29.06 "Hg5 mi
9:20 AM39 °FPartly sunny.5 mph93%29.06 "HgN/A
8:50 AM39 °FPartly sunny.6 mph93%29.03 "HgN/A
8:20 AM39 °FSprinkles. Overcast.3 mph93%29.03 "HgN/A
Weather by CustomWeather, © 2016

See weather overviewHow to use our weather pages